sat.trackr.live / text

‹ back to catalog

STARLINK-1114

NORAD 44927 · 2020-001P

PAYLOAD ACTIVE UNKNOWN

§ Identity

Operator
Country
US
Launch date
2020-01-07
Launch site
AFETR
Launch vehicle
Mass (kg)
RCS (m²)

Purposes: comms

External: N2YO · Heavens-Above · Gunter

§ Orbital elements

Epoch: 2026-05-24T22:29:41.169120Z

Period
92.12 min
Inclination
53.0425°
Eccentricity
0.0001180
Mean motion
15.63171070 rev/d
Perigee alt
377.7 km
Apogee alt
379.3 km
Semi-major
6,756.6 km
B*
9.6813e-4
RAAN
319.6095°
Arg perigee
346.0382°
Mean anomaly
14.0599°
Rev number
35,197

§ Raw data

STARLINK-11141 44927U 20001P   26144.93728205  .00090577  00000+0  96813-3 0  99992 44927  53.0425 319.6095 0001180 346.0382  14.0599 15.63171070351970

JSON: /api/v1/satellites/44927 · /tle

For live sub-satellite position, see the globe view (requires WebGL).

§ Visibility from observer

Set your observer location to see the next 7 days of passes ≥ 10°. The values pass through the URL so the page stays shareable.

No JS? Fill the form by hand. The geolocation button needs JavaScript.